Flag Weather past 2 weeks in Tampa, Florida, U.S.A.

Now
50 °F

Clear.


Feels Like: 48 °F
Forecast: 46 / 68 °F
Wind: 6 mph from North

Location: Tampa International Airport

Current Time: Nov 27, 2014 at 2:16:42 AM

Latest Report: Nov 27, 2014 at 12:53 AM


Visibility: 10 mi

Pressure: 30.25 "Hg

Humidity: 80%

Dew point: 44 °F

Location of TampaLocation

Historic Weather in Tampa — Graph

°F

Tampa temperature yesterday

Maximum temperature yesterday: 71 °F (at 12:53 AM)
Minimum temperature yesterday: 51 °F (at 11:53 PM)
Average temperature yesterday: 58 °F

Past Weeks' High & Low Weather Summary

 TemperatureHumidityPressure
High82 °F (Nov 23, 11:53 AM)97% (Nov 25, 11:53 AM)30.40 "Hg (Nov 25, 11:53 AM)
Low41 °F (Nov 19, 4:53 AM)25% (Nov 20, 1:53 PM)29.85 "Hg (Nov 26, 12:53 AM)
Average64 °F72%30.10 "Hg
* Reported Nov 12 12:53 AM — Nov 27 12:53 AM, Tampa, Weather by CustomWeather, © 2014

Note: Actual official high and low records may vary slightly from our data, if they occured in-between our weather recording intervals... More about our weather records

Advertising

Tampa weather history for previous 24 hours

 ConditionsComfort  
Time TempWeatherWind HumidityBarometerVisibility
12:53 AM
Nov 27
50 °FClear.6 mph80%30.25 "Hg10 mi
11:53 PM
Nov 26
51 °FClear.No wind80%30.24 "Hg10 mi
10:53 PM52 °FClear.No wind75%30.24 "Hg10 mi
9:53 PM53 °FClear.No wind72%30.23 "Hg10 mi
8:53 PM53 °FPassing clouds.3 mph69%30.23 "Hg10 mi
7:53 PM53 °FPassing clouds.5 mph66%30.21 "Hg10 mi
6:53 PM55 °FPassing clouds.6 mph59%30.21 "Hg10 mi
5:53 PM56 °FPassing clouds.7 mph58%30.19 "Hg10 mi
4:53 PM60 °FScattered clouds.10 mph47%30.18 "Hg10 mi
3:53 PM61 °FScattered clouds.12 mph50%30.17 "Hg10 mi
2:53 PM63 °FPartly sunny.13 mph50%30.15 "Hg10 mi
1:53 PM62 °FPartly sunny.12 mph58%30.15 "Hg10 mi
12:53 PM60 °FPartly sunny.17 mph62%30.17 "Hg10 mi
11:53 AM59 °FBroken clouds.9 mph72%30.18 "Hg10 mi
10:53 AM57 °FCloudy.8 mph83%30.17 "Hg10 mi
9:53 AM56 °FMore clouds than sun.9 mph87%30.16 "Hg10 mi
8:53 AM56 °FOvercast.13 mph87%30.14 "Hg10 mi
7:53 AM56 °FLight rain. Low clouds.9 mph90%30.10 "Hg10 mi
6:53 AM56 °FMostly cloudy.12 mph90%30.05 "Hg10 mi
5:53 AM56 °FLight rain. Mostly cloudy.16 mph87%30.00 "Hg7 mi
5:00 AM56 °FLight rain. Overcast.20 mph90%30.01 "Hg8 mi
3:53 AM59 °FLight rain. Low clouds.15 mph90%29.95 "Hg10 mi
2:53 AM62 °FLight rain. Mostly cloudy.14 mph90%29.92 "Hg9 mi
2:00 AM66 °FLight rain. Mostly cloudy.14 mph93%29.89 "Hg1 mi
Weather by CustomWeather, © 2014

See weather overviewHow to use our weather pages